Dewpoint
-3 -5 -5 -5 -11 -7 -6 -6 -8 -9 -11 -12 -11 -9 -6 -6 -6 -5 -3 -3 -3 -2 -3 -3 -2 -0 -0 -1 0 -0 0 1 2 2 2 3 2 1 0 -2 0 1 2 2 3 3 3 -5 -6 -3 -2 -3 -4 -4
-4 -5 -6 -10 -9 -6 -6 -7 -8 -10 -10 -10 -9 -7 -7 -6 -7 -5 -4 -4 -3 -2 -4 -2 -3 -4 -4 -4 -2 -1 -0 1 0 2 2 1 2 1 0 1 -3 1 1 1 1 1 -3 -4 -5 -6 -6 -4 -5 -4
-6 -7 -8 -10 -9 -6 -6 -6 -7 -9 -9 -9 -9 -8 -6 -7 -8 -5 -4 -2 -2 -2 -3 -3 -3 -7 -2 -5 -4 -0 -1 -1 1 1 0 -0 1 -1 2 2 -1 -3 -4 1 -1 -1 -2 -1 -3 -5 -5 -6 -5 -6
-6 -7 -9 -9 -8 -7 -7 -8 -8 -9 -10 -9 -8 -9 -9 -5 -5 -4 -4 -3 -3 -2 -3 -4 -6 -4 -5 -4 -4 -2 -2 -2 -1 -0 -0 2 0 -4 -2 -2 -1 -1 -2 -0 -1 -1 -1 -2 -3 -4 -4 -5 -5 -5
-6 -9 -10 -8 -8 -8 -8 -8 -9 -9 -10 -11 -9 -10 -10 -8 -5 -4 -4 -5 -5 -3 -2 -1 -1 -4 -4 -4 -3 -3 -1 -1 -0 -0 0 1 -1 -3 -3 -2 -0 -3 -2 -0 1 -1 -1 -2 -3 -4 -5 -4 -5 -5
-6 -10 -12 -8 -8 -8 -9 -8 -8 -9 -9 -10 -9 -8 -8 -8 -6 -5 -4 -8 -8 -5 -3 -1 -3 -1 -2 -1 -1 -0 -0 0 0 -0 0 -1 -5 -2 1 0 -4 -5 -5 -5 -4 -3 -4 -4 -4 -4 -4 -5 -5 -6
-6 -7 -11 -11 -9 -9 -9 -11 -12 -12 -11 -11 -9 -7 -6 -6 -7 -5 -6 -2 -2 -3 -2 -1 -1 -1 -1 -1 -1 -0 0 -0 0 -1 -1 -1 -4 -4 -2 -2 -5 -3 -4 -5 -4 -3 -3 -3 -4 -4 -5 -5 -5 -6
-6 -6 -8 -10 -9 -8 -8 -8 -10 -11 -10 -10 -7 -4 -4 -4 -4 -4 -9 -3 -3 -2 -1 -0 -1 -1 -1 -1 -1 -1 -1 -1 -1 -1 -2 -1 -2 -2 -3 -4 -2 -2 -3 -2 -3 -4 -4 -3 -4 -4 -5 -5 -7 -7
-12 -9 -8 -8 -9 -8 -8 -8 -10 -14 -13 -8 -6 -4 -3 -3 -4 -5 -7 -6 -3 -2 -1 -1 -1 -0 -1 -1 -1 -1 -1 0 -1 -2 -2 -1 -1 -1 -5 -1 -1 -2 -3 -2 -3 -3 -3 -3 -4 -5 -6 -7 -7 -8
-3 -3 -5 -6 -7 -8 -9 -9 -12 -14 -9 -6 -4 -4 -4 -6 -6 -5 -3 -2 -2 -1 -1 -1 -1 -1 -1 -1 -1 -1 -2 -1 0 -3 -3 -2 -4 -6 -5 -2 -2 -3 -3 -3 -4 -5 -5 -5 -5 -6 -6 -6 -7 -7
-2 -2 -3 -3 -4 -7 -8 -8 -9 -8 -6 -3 -3 -5 -5 -6 -6 -2 -1 -2 -1 -1 -1 -2 -1 -0 -1 -1 -1 -3 -2 -2 -1 -3 -2 -2 -3 -4 -3 -2 -2 -3 -3 -3 -6 -6 -4 -4 -4 -6 -6 -7 -7 -7
-2 -1 -2 -3 -3 -4 -5 -6 -6 -4 -4 -4 -5 -5 -4 -4 -2 -2 -4 -3 -2 -2 -2 -2 -1 -1 -2 -2 -2 -3 -2 -3 -4 -4 -2 -1 -2 -5 -2 -2 -3 -3 -3 -4 -6 -6 -4 -4 -4 -5 -6 -7 -7 -9
-2 -1 -1 -3 -3 -3 -4 -4 -4 -4 -5 -4 -4 -3 -3 -3 -3 -3 -4 -3 -2 -3 -3 -2 -1 -3 -4 -5 -4 -3 -3 -2 -4 -2 -3 -4 -4 -3 -2 -2 -3 -3 -5 -6 -5 -4 -4 -4 -4 -5 -6 -7 -8 -10
-1 -1 -2 -2 -3 -3 -4 -3 -4 -5 -4 -5 -3 -2 -2 -4 -3 -4 -4 -4 -4 -3 -3 -4 -3 -2 -4 -3 -4 -2 -3 -4 -2 -1 -2 -4 -3 -2 -2 -3 -3 -4 -5 -6 -5 -5 -4 -4 -5 -6 -7 -8 -10 -10
-3 -3 -3 -3 -3 -3 -3 -5 -6 -5 -5 -6 -6 -6 -6 -6 -5 -3 -4 -3 -3 -3 -4 -4 -4 -4 -3 -3 -4 -3 -2 -1 -2 -2 -4 -5 -4 -3 -2 -4 -4 -5 -5 -6 -5 -5 -5 -5 -5 -7 -9 -10 -10 -10
-3 -4 -3 -3 -3 -4 -5 -3 -3 -4 -4 -3 -3 -4 -3 -3 -3 -3 -2 -3 -3 -4 -5 -5 -4 -4 -4 -3 -3 -3 -2 -2 -4 -5 -5 -4 -4 -3 -3 -4 -5 -5 -5 -6 -5 -5 -6 -7 -8 -9 -9 -9 -9 -9
-3 -2 -4 -5 -5 -3 -3 -4 -4 -4 -4 -3 -2 -2 -2 -2 -3 -3 -2 -3 -4 -6 -4 -4 -5 -4 -4 -3 -4 -4 -3 -5 -4 -5 -5 -4 -4 -4 -4 -4 -4 -4 -5 -5 -6 -6 -7 -8 -9 -8 -8 -8 -9 -12
-3 -4 -4 -4 -3 -3 -5 -5 -3 -4 -3 -3 -2 -3 -2 -3 -3 -2 -3 -4 -5 -5 -4 -4 -4 -3 -2 -3 -2 -4 -4 -5 -5 -5 -5 -5 -4 -4 -4 -4 -4 -5 -5 -6 -7 -7 -8 -8 -8 -8 -8 -9 -12 -14
-4 -3 -4 -4 -4 -6 -6 -6 -4 -4 -3 -3 -3 -2 -2 -3 -3 -2 -3 -4 -5 -5 -4 -4 -3 -2 -3 -4 -4 -5 -5 -4 -5 -5 -5 -5 -5 -4 -4 -5 -5 -5 -6 -6 -7 -7 -7 -8 -8 -9 -10 -11 -13 -14
-7 -8 -8 -7 -6 -7 -6 -6 -4 -4 -3 -3 -3 -3 -3 -3 -4 -4 -4 -4 -3 -4 -5 -4 -4 -5 -5 -4 -4 -4 -4 -4 -5 -6 -5 -5 -5 -5 -5 -5 -5 -6 -7 -7 -7 -7 -8 -9 -10 -11 -11 -12 -13 -14
-10 -9 -9 -8 -7 -7 -5 -5 -4 -3 -3 -3 -3 -3 -3 -3 -2 -1 -2 -5 -7 -5 -4 -4 -4 -4 -4 -4 -4 -4 -4 -4 -4 -5 -5 -6 -6 -6 -6 -6 -7 -7 -7 -8 -9 -9 -9 -9 -10 -10 -11 -13 -14 -15
-12 -14 -12 -8 -7 -5 -5 -4 -4 -3 -3 -3 -4 -4 -6 -6 -5 -4 -4 -7 -6 -5 -4 -4 -4 -4 -4 -4 -4 -4 -4 -4 -5 -5 -5 -5 -5 -6 -6 -6 -7 -8 -8 -8 -9 -9 -9 -9 -10 -10 -11 -12 -14 -15
-15 -15 -13 -8 -7 -7 -6 -6 -5 -5 -5 -5 -5 -7 -7 -9 -6 -6 -7 -6 -6 -5 -5 -5 -5 -4 -4 -4 -4 -4 -4 -4 -5 -5 -5 -5 -6 -6 -6 -7 -8 -8 -8 -8 -7 -8 -8 -8 -9 -10 -11 -11 -12 -13
-14 -13 -12 -9 -8 -7 -6 -6 -5 -6 -6 -6 -7 -7 -7 -8 -5 -6 -7 -6 -6 -5 -4 -5 -5 -4 -4 -4 -4 -5 -5 -6 -5 -5 -5 -6 -6 -6 -7 -7 -7 -7 -7 -7 -7 -8 -8 -9 -9 -10 -11 -11 -11 -12
-11 -9 -10 -9 -7 -9 -9 -9 -9 -8 -8 -8 -9 -10 -8 -6 -7 -7 -7 -8 -6 -5 -5 -5 -5 -5 -5 -5 -5 -5 -5 -6 -6 -7 -7 -7 -6 -6 -7 -7 -7 -7 -7 -7 -7 -8 -8 -9 -9 -10 -10 -11 -11 -12
-10 -7 -9 -10 -9 -10 -9 -9 -10 -9 -10 -9 -9 -10 -7 -10 -10 -11 -8 -8 -6 -5 -5 -5 -5 -5 -5 -5 -6 -6 -6 -6 -6 -6 -7 -7 -7 -8 -8 -8 -8 -8 -8 -8 -8 -8 -8 -8 -9 -10 -10 -11 -11 -12
-11 -10 -7 -6 -5 -6 -9 -8 -8 -9 -10 -10 -9 -6 -10 -11 -12 -11 -6 -8 -7 -6 -6 -6 -6 -6 -6 -6 -6 -6 -6 -6 -6 -7 -7 -7 -7 -7 -8 -8 -8 -8 -8 -8 -8 -8 -8 -8 -9 -9 -10 -10 -11 -11
-7 -7 -9 -7 -7 -7 -12 -12 -11 -10 -9 -8 -8 -8 -9 -13 -13 -6 -5 -7 -10 -12 -9 -8 -9 -9 -8 -7 -8 -8 -8 -8 -8 -8 -7 -7 -7 -8 -8 -8 -8 -8 -8 -9 -9 -8 -8 -9 -9 -9 -10 -10 -11 -11
-8 -8 -7 -13 -9 -8 -8 -8 -8 -7 -7 -7 -9 -9 -8 -7 -7 -6 -5 -5 -7 -8 -9 -10 -9 -8 -7 -7 -7 -7 -8 -9 -9 -9 -8 -9 -8 -8 -8 -8 -8 -9 -9 -9 -10 -10 -9 -9 -10 -10 -10 -11 -11 -12
-9 -8 -8 -10 -12 -11 -8 -8 -8 -8 -8 -7 -8 -8 -7 -7 -7 -6 -6 -6 -6 -7 -8 -8 -8 -8 -8 -8 -8 -8 -8 -9 -9 -9 -9 -9 -9 -9 -9 -9 -10 -10 -9 -9 -10 -10 -11 -11 -11 -11 -11 -12 -13 -14
-9 -9 -8 -9 -10 -8 -8 -8 -8 -8 -8 -7 -7 -7 -8 -8 -7 -7 -7 -6 -6 -6 -7 -7 -8 -7 -7 -8 -8 -8 -9 -10 -10 -10 -10 -10 -10 -10 -10 -10 -10 -10 -10 -10 -10 -10 -11 -11 -11 -12 -12 -13 -13 -14
-9 -8 -10 -13 -11 -8 -8 -9 -9 -9 -9 -8 -7 -7 -8 -8 -8 -8 -8 -7 -7 -7 -7 -7 -7 -8 -8 -8 -9 -9 -10 -10 -10 -10 -10 -10 -10 -10 -10 -10 -10 -11 -11 -10 -10 -11 -11 -12 -12 -12 -13 -13 -13 -14
-9 -11 -11 -10 -10 -10 -9 -9 -9 -10 -9 -9 -8 -8 -8 -8 -8 -9 -8 -8 -8 -7 -7 -8 -8 -8 -8 -9 -9 -9 -9 -10 -10 -10 -10 -11 -10 -10 -10 -10 -11 -11 -11 -11 -11 -12 -12 -12 -12 -13 -13 -14 -14 -14
Wind_Speed
25 23 24 24 24 23 21 21 19 16 14 12 12 14 16 15 15 18 19 20 15 6 7 8 10 5 5 4 1 5 6 4 5 7 5 6 6 8 4 5 7 9 9 4 3 6 11 9 6 8 2 4 13 16
24 24 24 23 23 22 22 21 19 17 14 14 12 12 13 15 16 18 20 18 17 14 6 7 16 22 21 16 8 5 5 1 7 4 5 3 3 4 4 5 3 5 5 6 8 5 1 12 3 8 10 13 16 20
23 23 22 23 23 23 21 21 19 17 16 15 13 14 12 12 16 18 21 13 14 9 11 18 19 22 17 22 11 9 8 7 2 2 2 3 5 5 6 5 2 4 3 2 2 5 4 7 6 9 10 14 19 22
25 24 24 23 23 24 23 21 20 19 18 18 16 14 14 13 15 17 19 15 15 5 4 10 15 18 24 26 29 29 26 12 16 12 3 4 4 9 4 2 4 4 10 7 3 3 2 6 11 14 15 17 22 25
25 24 26 27 25 24 23 23 20 18 16 16 17 15 16 16 14 13 12 12 15 11 4 3 9 14 15 20 28 32 33 27 17 6 4 4 4 3 1 2 4 7 6 7 5 15 6 8 16 20 25 26 25 25
27 25 27 29 28 26 25 24 23 20 17 16 16 15 14 15 15 10 5 15 19 16 4 3 5 11 18 23 27 29 31 24 14 8 3 4 7 6 3 4 3 20 16 13 5 22 6 22 25 25 26 25 24 20
31 29 27 31 30 29 26 25 24 22 19 17 16 16 16 16 20 19 5 7 3 20 5 3 3 5 14 13 16 23 30 16 16 8 8 4 5 5 2 4 5 14 13 11 18 25 15 25 21 26 25 24 22 21
35 34 33 32 33 31 29 26 24 22 19 17 16 14 14 13 15 23 24 14 3 11 5 2 3 3 7 7 7 14 11 13 12 6 4 4 2 2 4 2 11 13 15 20 22 14 23 28 30 27 25 26 25 25
44 42 39 36 36 34 33 30 27 23 20 18 17 16 14 13 10 16 17 23 25 13 3 4 2 3 2 4 6 7 6 3 9 4 3 7 3 4 5 16 20 27 19 23 15 14 26 32 32 30 29 28 26 25
50 50 49 48 42 36 36 33 29 24 21 19 19 7 4 9 7 6 7 5 11 9 6 2 4 2 3 3 2 2 2 2 2 1 5 1 2 2 4 18 26 27 23 29 27 18 25 30 34 32 30 27 23 22
45 51 50 48 48 44 39 34 29 24 22 21 8 5 6 12 11 6 4 2 5 3 6 6 9 2 2 1 2 1 2 1 3 3 3 3 2 3 13 22 26 19 29 27 16 19 30 33 36 33 28 24 21 18
36 41 51 52 48 48 42 33 29 31 25 18 13 16 14 7 3 2 2 2 3 3 4 4 4 4 4 3 2 2 1 0 2 1 2 2 3 12 23 26 25 26 26 15 13 19 24 29 29 27 26 24 20 17
36 45 48 53 48 48 42 38 35 28 27 27 8 5 4 3 2 4 4 3 3 3 7 6 3 5 1 4 3 1 2 0 1 1 3 3 1 18 26 31 27 27 19 17 18 21 19 25 25 24 24 21 18 17
48 48 49 53 50 46 42 37 38 32 20 4 5 5 4 3 5 5 4 2 4 4 13 15 3 2 2 2 0 2 0 1 1 2 3 1 8 22 29 29 33 26 20 20 22 20 21 23 24 21 18 17 17 17
60 57 56 53 50 48 48 45 36 24 2 2 4 4 5 6 4 2 4 2 4 14 19 9 4 3 1 3 1 2 1 2 3 3 1 4 13 26 31 30 31 27 23 21 22 22 22 22 22 20 18 16 15 15
58 59 57 55 56 50 42 28 21 10 2 2 1 2 2 1 2 2 5 4 13 18 13 5 2 2 1 3 2 4 3 4 2 1 6 2 18 28 31 29 29 26 23 22 22 21 21 21 20 19 18 16 14 13
50 49 54 49 51 38 22 23 9 2 2 1 0 2 1 1 3 4 6 9 22 13 2 2 3 4 2 1 2 3 3 1 5 7 4 8 20 27 29 27 26 24 22 21 21 21 21 20 18 16 15 15 14 12
44 39 36 38 33 13 19 7 2 1 2 3 0 2 1 3 3 4 5 17 12 6 4 2 5 3 2 2 1 1 2 2 3 1 5 9 18 23 25 25 23 21 20 19 19 20 19 18 17 15 14 14 14 14
29 21 25 15 6 3 4 3 2 3 1 1 2 2 3 3 3 5 10 15 12 6 5 2 2 0 1 1 2 5 5 3 3 5 9 12 17 21 21 20 19 18 17 18 18 17 16 14 12 12 13 12 12 13
12 9 7 11 13 3 1 2 2 3 2 1 2 2 2 3 6 9 13 11 9 4 3 2 1 1 2 3 6 7 5 6 11 15 16 17 18 19 19 18 16 16 16 16 15 14 15 15 14 13 11 11 12 12
3 4 4 7 5 2 2 2 3 3 3 3 4 3 3 3 3 4 4 4 3 2 2 3 4 2 2 2 1 2 6 10 16 16 25 25 21 18 16 15 14 14 14 15 15 15 13 12 10 10 10 10 10 10
5 9 5 3 3 3 4 4 3 3 1 4 2 2 2 2 1 1 2 2 2 2 5 8 7 5 4 6 10 12 12 10 8 13 19 21 21 19 17 15 15 14 12 11 10 8 8 11 12 12 11 11 13 14
6 5 1 1 2 3 2 2 1 1 2 1 2 2 1 1 3 5 2 3 3 6 10 12 9 8 10 12 10 9 7 5 12 16 17 15 13 13 13 13 12 11 10 8 7 8 8 10 13 14 13 14 15 16
5 1 1 2 2 2 2 1 1 2 2 1 2 0 2 1 2 1 2 3 5 12 16 14 13 15 13 11 10 7 7 8 11 13 12 12 12 12 10 10 9 8 8 7 8 8 8 8 11 14 15 15 15 16
2 4 2 3 3 3 3 2 3 2 2 2 2 2 2 3 1 2 3 4 16 20 19 17 15 13 14 12 11 9 8 6 6 10 10 9 10 11 11 10 9 9 9 9 8 9 8 9 10 13 14 14 15 16
4 5 3 2 2 1 3 2 2 4 2 2 4 1 1 2 1 5 3 7 21 27 27 25 22 18 16 14 14 12 10 9 7 7 9 7 5 4 6 8 8 8 9 9 9 10 10 10 11 12 13 13 14 15
4 3 3 3 2 1 1 1 1 2 3 4 2 4 2 1 5 3 2 7 12 22 21 18 17 15 14 15 14 12 12 11 9 10 9 9 9 7 6 5 6 7 8 9 10 10 10 10 11 12 13 14 14 15
3 6 3 9 4 3 2 1 0 2 2 2 2 3 5 6 3 1 2 7 9 15 19 17 16 14 16 16 13 12 13 11 9 10 10 10 10 9 8 7 6 7 7 6 6 9 10 9 10 10 11 13 13 14
2 10 7 4 2 1 1 1 1 1 3 2 1 2 2 2 2 1 5 7 12 16 20 22 22 19 18 15 14 12 10 9 10 10 10 8 8 8 8 8 8 7 7 7 7 8 9 9 9 9 9 9 11 12
4 11 3 2 1 2 2 2 4 6 6 6 5 4 3 3 2 3 6 8 11 13 16 17 18 19 18 17 16 14 12 10 9 8 8 8 8 9 8 8 8 8 8 9 8 8 7 7 9 10 10 10 11 10
7 4 2 2 4 3 4 7 10 10 9 6 7 7 5 3 4 7 10 11 10 11 15 17 17 16 16 16 15 13 12 8 8 9 9 8 7 9 9 9 8 8 8 8 8 7 6 7 8 8 8 9 9 9
4 1 1 3 4 4 6 3 3 3 4 5 5 7 5 3 4 6 12 14 13 12 11 12 11 10 11 10 9 8 4 7 6 5 5 5 5 6 6 7 6 7 8 10 10 9 8 7 7 8 8 9 9 9
5 4 5 4 4 3 2 4 3 3 4 3 4 7 9 6 5 6 8 17 18 16 15 13 11 10 9 8 8 7 7 7 4 3 3 3 4 6 7 7 7 6 7 9 10 10 10 9 9 9 10 9 10 9
Wind_Direction
250 239 233 231 232 226 219 215 220 222 233 235 235 234 234 227 219 221 224 229 229 212 232 219 229 183 143 144 234 325 172 194 162 201 232 195 208 203 202 191 182 168 162 182 171 200 247 166 135 194 161 122 163 166
235 232 229 228 225 220 214 214 217 216 223 232 228 226 226 221 214 217 227 229 237 233 219 188 231 238 239 246 257 241 306 241 185 180 209 218 192 177 207 227 164 195 191 169 190 202 188 176 152 191 172 159 168 167
229 226 224 223 221 216 216 215 219 222 220 229 232 222 217 214 205 213 219 202 205 258 282 251 246 243 237 216 212 232 234 230 275 345 246 210 228 175 183 222 167 231 149 144 140 219 165 194 196 176 171 174 170 168
223 223 221 217 215 215 215 213 214 219 219 220 224 222 218 210 201 206 213 218 217 245 226 246 244 233 223 228 232 230 246 255 255 275 207 236 209 200 211 218 199 188 155 175 247 253 128 207 190 166 152 155 155 159
223 225 218 215 212 211 211 211 213 216 221 215 214 221 214 211 209 214 225 228 222 220 304 329 302 252 223 224 228 235 234 232 234 214 210 236 233 170 25 265 201 192 165 184 211 182 179 175 166 161 156 156 158 158
223 223 217 214 211 211 212 214 216 217 218 214 213 210 205 208 206 205 246 258 223 233 261 277 232 211 212 220 222 220 218 212 215 190 207 221 255 157 176 241 221 197 201 194 168 166 144 153 156 164 159 159 159 163
226 223 221 216 214 213 213 215 215 216 215 215 211 205 209 203 203 192 196 107 80 199 233 245 265 204 197 201 215 222 217 220 204 219 204 201 230 169 218 215 179 178 180 171 154 143 110 154 159 164 161 157 157 160
229 226 223 218 215 212 212 213 211 213 211 207 206 204 197 203 215 230 225 238 292 200 246 264 264 287 201 188 194 188 167 169 183 191 194 175 129 53 242 212 149 150 149 147 154 174 168 164 159 161 164 158 161 162
226 224 223 218 214 212 211 211 213 211 206 200 202 204 207 204 209 244 260 239 261 235 213 210 228 286 229 199 178 168 158 155 160 198 200 166 135 211 232 172 157 161 160 156 151 161 160 161 163 164 165 167 169 167
234 225 215 211 210 204 207 208 206 202 196 194 196 182 139 196 145 218 266 242 196 192 240 247 197 232 277 219 93 113 94 135 132 204 151 263 229 230 222 185 171 164 166 159 135 139 154 162 167 168 174 176 179 176
231 221 216 208 199 202 201 199 196 189 186 192 169 167 142 162 186 197 241 187 199 195 210 225 198 200 205 34 111 50 146 247 161 160 187 195 238 205 173 174 172 169 171 169 182 182 181 178 173 172 175 177 178 180
204 200 203 199 193 189 191 188 181 181 184 168 153 126 137 172 206 190 242 293 233 238 199 181 173 176 171 162 115 51 107 43 141 117 149 239 226 174 167 166 167 169 165 166 171 169 174 176 174 174 174 177 180 183
167 173 181 183 175 178 177 176 180 156 139 132 132 141 159 156 153 201 213 233 235 200 184 158 164 171 157 59 71 89 78 138 129 102 233 232 142 165 165 161 160 162 162 156 153 159 164 172 175 177 176 181 184 184
128 139 156 160 158 160 161 164 148 157 145 165 129 135 207 205 232 200 199 183 241 211 162 156 84 88 51 61 43 93 348 232 118 230 238 251 174 167 169 163 158 159 156 152 153 158 162 170 172 177 184 186 188 190
113 125 134 139 143 146 149 147 156 159 138 141 167 205 207 227 245 241 224 228 210 170 149 113 78 114 70 91 22 107 134 246 223 237 250 332 173 170 168 166 163 158 157 159 162 164 167 169 173 175 179 185 188 193
116 122 127 134 138 138 140 151 166 162 232 208 179 134 204 235 227 260 224 184 161 154 124 88 95 57 286 127 143 205 174 227 246 291 325 201 171 172 171 170 168 166 165 166 168 171 171 175 178 180 180 185 192 200
113 118 127 132 137 138 137 152 164 179 170 206 357 25 242 321 226 222 203 176 164 159 123 120 125 199 117 117 227 195 221 299 322 317 313 187 178 173 173 172 172 171 170 172 173 176 176 176 180 184 190 191 193 197
119 128 130 142 148 145 137 158 233 239 47 34 47 313 308 253 233 181 180 168 165 133 141 133 133 180 196 206 230 298 284 311 340 78 136 163 173 170 171 170 170 173 174 176 178 179 182 186 189 192 193 198 201 203
118 127 133 137 180 148 189 170 172 128 118 92 59 58 79 84 100 158 149 165 165 125 95 69 80 144 225 258 270 305 289 255 179 134 132 144 160 164 163 166 166 169 174 177 180 186 189 194 198 201 205 207 209 209
94 115 170 196 192 237 170 82 88 101 110 56 76 51 46 82 98 99 138 146 132 108 28 53 180 212 229 257 280 285 252 211 173 137 132 142 150 154 157 162 167 171 175 178 182 188 189 191 199 206 213 217 218 214
112 88 131 174 158 152 92 83 75 98 112 109 113 87 59 83 85 93 92 119 148 124 147 173 164 132 348 355 95 210 185 185 167 157 154 153 155 161 165 168 172 174 181 185 191 193 200 211 219 220 220 219 214 206
354 346 359 46 99 95 80 50 87 105 120 122 103 92 85 94 68 109 145 48 156 172 171 161 148 142 123 101 95 101 117 136 154 161 159 159 160 168 174 175 176 178 183 191 201 212 227 231 227 225 221 213 205 202
275 280 304 46 77 46 101 88 139 74 112 175 115 93 284 159 152 158 105 224 219 190 170 156 158 154 142 130 117 102 92 124 140 154 159 163 167 170 175 178 180 186 184 187 216 244 251 251 233 225 217 212 211 209
211 231 51 66 60 184 153 60 106 97 113 101 136 231 252 213 156 69 245 228 188 169 160 157 162 148 144 142 134 131 122 121 141 147 156 166 166 163 166 172 172 188 208 222 226 227 239 249 230 223 219 221 223 221
185 9 14 359 48 59 47 14 349 61 173 208 107 287 250 177 139 225 229 213 184 180 173 174 176 181 175 169 167 155 147 139 135 143 137 142 163 164 167 180 195 210 222 229 231 235 239 239 235 225 220 226 223 221
80 15 62 199 318 103 189 164 222 210 154 184 232 315 122 113 132 243 230 205 189 183 185 187 185 182 182 180 172 169 165 165 164 159 153 147 150 165 178 195 209 226 234 236 240 241 240 247 241 232 229 229 225 223
57 326 6 22 315 292 354 305 141 125 186 211 200 170 107 175 239 252 236 178 187 195 192 193 198 199 195 186 186 198 197 188 177 185 182 183 189 196 211 223 228 230 244 244 243 239 242 246 241 233 232 232 232 230
55 24 5 319 342 11 159 35 92 241 293 343 139 205 196 200 242 315 209 180 180 181 181 183 172 169 170 174 171 164 166 177 178 185 190 197 209 222 234 237 242 261 262 250 240 235 237 237 233 232 238 237 233 224
21 344 332 356 351 357 323 302 294 316 323 294 243 288 302 292 287 257 161 171 167 173 175 175 178 178 178 177 178 176 178 180 183 184 191 193 200 215 225 236 246 246 241 243 246 236 227 226 227 226 219 213 209 210
334 340 338 329 316 247 230 262 279 299 289 271 266 290 290 268 250 192 171 176 180 179 178 176 177 178 178 179 178 182 186 189 196 204 211 210 210 221 226 229 232 235 234 238 238 230 227 231 222 207 204 204 209 216
314 311 296 262 259 249 248 276 291 280 259 257 242 244 262 270 228 211 196 197 201 199 189 183 180 181 187 186 191 202 209 207 212 219 227 231 232 225 230 231 232 232 229 224 220 214 217 212 209 208 205 206 207 206
286 269 6 304 282 276 291 272 273 270 254 240 224 215 204 223 241 220 205 205 202 200 193 194 199 196 200 196 202 210 199 189 203 216 228 237 242 236 231 227 219 215 215 210 210 213 211 207 210 209 207 207 203 200
279 268 252 274 290 298 308 302 267 274 246 248 241 217 211 214 241 220 208 202 204 203 211 214 214 213 214 214 210 216 229 239 239 234 246 247 227 206 199 201 204 207 209 208 206 208 208 211 210 205 203 199 199 202
Height
1354 1357 1360 1364 1368 1371 1375 1380 1384 1388 1390 1392 1395 1397 1400 1403 1406 1409 1413 1417 1422 1420 1419 1422 1428 1427 1429 1433 1434 1434 1433 1433 1438 1441 1439 1432 1430 1429 1430 1428 1435 1433 1441 1443 1444 1442 1437 1425 1433 1432 1428 1429 1433 1439
1348 1351 1355 1359 1363 1368 1372 1377 1381 1385 1388 1391 1393 1396 1399 1402 1406 1409 1411 1414 1418 1420 1421 1420 1424 1425 1426 1428 1435 1433 1429 1426 1427 1432 1432 1430 1428 1430 1427 1423 1425 1425 1422 1427 1430 1422 1423 1421 1423 1425 1426 1428 1433 1439
1341 1346 1350 1354 1359 1364 1368 1373 1377 1382 1386 1389 1391 1394 1397 1400 1403 1406 1409 1412 1415 1416 1416 1418 1416 1417 1418 1420 1425 1431 1427 1426 1423 1426 1427 1424 1425 1421 1420 1419 1418 1421 1419 1423 1426 1423 1417 1421 1423 1423 1424 1429 1432 1438
1335 1340 1345 1350 1355 1360 1365 1370 1374 1379 1383 1387 1390 1392 1396 1399 1402 1405 1407 1410 1413 1414 1412 1407 1406 1407 1409 1412 1415 1417 1420 1422 1425 1426 1426 1422 1418 1414 1410 1407 1408 1412 1415 1418 1421 1421 1421 1421 1421 1421 1425 1432 1435 1442
1329 1334 1339 1345 1350 1356 1361 1366 1371 1376 1380 1384 1388 1391 1394 1397 1401 1403 1406 1408 1409 1413 1405 1401 1401 1401 1402 1404 1404 1409 1415 1418 1421 1422 1421 1417 1411 1412 1411 1411 1403 1404 1403 1408 1404 1406 1409 1411 1415 1421 1427 1432 1437 1439
1323 1328 1333 1339 1346 1352 1357 1363 1368 1373 1377 1381 1385 1388 1392 1395 1399 1402 1404 1401 1403 1405 1409 1402 1398 1395 1396 1398 1401 1403 1407 1410 1412 1411 1411 1410 1406 1404 1409 1404 1394 1394 1394 1396 1397 1402 1405 1408 1417 1424 1428 1433 1438 1442
1314 1320 1327 1333 1340 1346 1353 1359 1364 1370 1375 1379 1383 1386 1389 1393 1395 1397 1398 1398 1396 1402 1405 1399 1391 1388 1391 1393 1394 1396 1399 1400 1402 1404 1404 1405 1403 1398 1401 1392 1386 1389 1392 1395 1396 1401 1411 1413 1418 1425 1429 1434 1439 1445
1304 1311 1318 1325 1333 1341 1348 1355 1361 1367 1373 1377 1381 1384 1388 1391 1394 1393 1393 1392 1397 1400 1397 1393 1388 1386 1384 1384 1386 1387 1388 1391 1393 1396 1397 1395 1399 1399 1393 1387 1387 1389 1392 1396 1399 1401 1403 1411 1419 1425 1431 1434 1441 1446
1289 1298 1308 1317 1326 1335 1343 1351 1358 1364 1370 1375 1380 1383 1385 1388 1389 1389 1391 1393 1394 1399 1392 1390 1386 1381 1380 1379 1380 1382 1383 1385 1391 1392 1390 1388 1391 1393 1381 1383 1384 1387 1390 1395 1400 1404 1408 1411 1420 1425 1430 1436 1440 1445
1266 1278 1292 1306 1318 1329 1338 1347 1355 1362 1370 1376 1380 1378 1381 1382 1388 1390 1391 1390 1387 1386 1387 1383 1381 1380 1381 1376 1377 1378 1380 1382 1383 1384 1384 1381 1378 1378 1378 1380 1382 1386 1389 1395 1400 1409 1410 1415 1419 1424 1430 1436 1440 1444
1241 1257 1274 1292 1309 1323 1334 1344 1353 1364 1371 1371 1374 1378 1381 1382 1386 1387 1383 1381 1382 1381 1379 1376 1376 1376 1376 1375 1374 1378 1380 1381 1378 1380 1379 1380 1377 1375 1377 1380 1384 1387 1392 1396 1399 1401 1405 1409 1415 1423 1430 1436 1440 1444
1223 1239 1259 1281 1301 1318 1332 1344 1354 1362 1366 1370 1372 1376 1382 1384 1383 1385 1384 1381 1378 1374 1373 1372 1373 1374 1374 1374 1373 1377 1378 1381 1375 1381 1380 1376 1369 1370 1374 1378 1384 1389 1394 1398 1401 1403 1408 1413 1418 1424 1430 1435 1439 1443
1214 1235 1255 1278 1300 1318 1333 1345 1353 1361 1366 1371 1374 1377 1378 1382 1384 1383 1384 1376 1374 1369 1368 1369 1373 1372 1372 1372 1376 1378 1380 1382 1382 1380 1373 1367 1367 1370 1374 1379 1385 1392 1397 1399 1402 1406 1410 1415 1421 1425 1430 1434 1438 1442
1230 1246 1265 1288 1307 1322 1336 1346 1355 1363 1366 1366 1368 1376 1375 1379 1374 1369 1366 1365 1365 1364 1366 1369 1371 1371 1374 1375 1379 1377 1383 1382 1381 1379 1368 1367 1368 1371 1376 1380 1385 1392 1396 1400 1404 1408 1412 1416 1421 1426 1431 1434 1437 1441
1259 1272 1287 1304 1318 1331 1342 1352 1360 1364 1364 1366 1369 1373 1373 1366 1364 1364 1364 1364 1364 1365 1366 1369 1371 1372 1375 1378 1379 1381 1381 1380 1375 1369 1369 1369 1369 1372 1377 1382 1387 1392 1397 1401 1405 1409 1413 1418 1422 1426 1430 1434 1436 1439
1291 1298 1311 1320 1332 1343 1354 1360 1363 1365 1366 1366 1365 1366 1365 1364 1362 1362 1362 1362 1364 1365 1366 1368 1372 1376 1376 1376 1377 1377 1377 1373 1370 1371 1371 1370 1371 1374 1379 1384 1389 1393 1398 1403 1407 1411 1415 1418 1422 1426 1429 1432 1435 1438
1317 1319 1333 1338 1345 1351 1357 1362 1367 1366 1365 1363 1362 1361 1362 1362 1362 1362 1361 1362 1364 1365 1369 1371 1374 1373 1376 1376 1375 1373 1372 1372 1373 1371 1370 1370 1372 1376 1381 1386 1391 1396 1400 1404 1408 1412 1416 1419 1423 1426 1429 1431 1434 1437
1334 1342 1348 1352 1355 1358 1359 1363 1364 1363 1362 1362 1363 1363 1362 1361 1360 1360 1360 1361 1364 1365 1367 1368 1370 1372 1371 1370 1370 1374 1373 1373 1372 1371 1370 1372 1375 1379 1384 1389 1394 1398 1402 1406 1410 1413 1416 1420 1423 1425 1427 1429 1431 1434
1351 1354 1357 1360 1360 1363 1363 1364 1364 1364 1365 1364 1364 1363 1363 1362 1361 1360 1361 1364 1365 1366 1367 1369 1371 1371 1373 1374 1373 1372 1372 1372 1372 1372 1373 1375 1379 1383 1387 1392 1396 1400 1404 1407 1410 1414 1417 1420 1423 1424 1426 1428 1430 1432
1358 1360 1360 1360 1361 1361 1361 1362 1362 1362 1364 1365 1364 1364 1364 1363 1363 1363 1363 1365 1367 1369 1371 1373 1373 1374 1373 1372 1372 1370 1370 1371 1372 1373 1376 1379 1384 1387 1391 1394 1397 1401 1405 1408 1411 1414 1416 1418 1421 1423 1425 1427 1428 1430
1361 1360 1360 1360 1361 1361 1361 1360 1361 1362 1363 1364 1364 1365 1365 1365 1365 1365 1366 1367 1369 1371 1372 1372 1373 1372 1371 1370 1369 1369 1369 1370 1372 1374 1375 1380 1385 1389 1393 1395 1398 1401 1404 1407 1410 1412 1415 1418 1420 1421 1423 1424 1427 1429
1359 1359 1359 1359 1358 1360 1361 1362 1362 1363 1364 1363 1365 1365 1366 1367 1367 1367 1367 1367 1368 1369 1369 1370 1371 1372 1372 1372 1372 1371 1372 1374 1376 1377 1381 1383 1385 1389 1392 1395 1397 1400 1404 1407 1409 1412 1414 1416 1417 1419 1420 1422 1424 1426
1360 1360 1359 1359 1359 1360 1365 1363 1364 1364 1365 1365 1365 1366 1367 1366 1367 1368 1368 1368 1367 1366 1367 1369 1370 1371 1372 1374 1375 1376 1377 1378 1378 1380 1383 1386 1388 1391 1393 1396 1398 1401 1404 1406 1409 1411 1412 1413 1414 1416 1418 1419 1421 1424
1360 1360 1359 1359 1361 1363 1364 1363 1363 1363 1364 1365 1366 1368 1367 1366 1366 1366 1367 1365 1363 1364 1366 1368 1370 1371 1374 1375 1376 1378 1379 1380 1380 1382 1384 1387 1388 1391 1394 1397 1399 1402 1404 1405 1406 1407 1408 1409 1411 1412 1414 1416 1418 1420
1361 1363 1363 1363 1363 1364 1366 1366 1366 1365 1368 1367 1367 1367 1365 1365 1367 1367 1362 1358 1359 1361 1364 1367 1369 1371 1373 1375 1377 1379 1380 1382 1383 1383 1385 1387 1389 1391 1394 1396 1398 1400 1401 1402 1403 1404 1405 1406 1407 1409 1411 1413 1415 1417
1364 1365 1365 1365 1366 1366 1366 1368 1368 1366 1367 1368 1366 1365 1364 1366 1368 1361 1355 1351 1352 1356 1359 1362 1365 1369 1371 1374 1376 1378 1380 1381 1383 1384 1386 1388 1390 1391 1393 1395 1396 1398 1398 1399 1400 1401 1402 1404 1405 1407 1408 1410 1412 1414
1369 1368 1366 1365 1365 1364 1365 1364 1363 1365 1366 1365 1363 1363 1366 1369 1365 1353 1350 1350 1352 1354 1358 1362 1365 1367 1369 1371 1374 1376 1378 1380 1382 1384 1385 1387 1389 1390 1392 1393 1394 1395 1395 1396 1397 1398 1399 1400 1401 1403 1405 1407 1409 1411
1369 1369 1370 1367 1365 1365 1366 1366 1366 1365 1363 1361 1362 1362 1360 1358 1355 1352 1351 1351 1351 1354 1357 1361 1364 1366 1368 1371 1373 1375 1376 1379 1380 1382 1384 1386 1387 1388 1389 1390 1391 1392 1393 1393 1394 1395 1396 1397 1399 1400 1401 1403 1405 1407
1371 1370 1368 1367 1366 1365 1365 1364 1363 1363 1363 1362 1361 1358 1356 1355 1354 1352 1352 1352 1352 1354 1355 1358 1361 1365 1368 1370 1372 1374 1376 1377 1379 1380 1382 1383 1384 1386 1386 1387 1388 1389 1390 1391 1392 1392 1394 1395 1396 1397 1399 1400 1402 1404
1372 1371 1369 1368 1368 1366 1364 1363 1362 1361 1360 1360 1359 1358 1356 1355 1354 1353 1354 1354 1355 1356 1357 1359 1361 1363 1365 1368 1370 1372 1374 1375 1376 1378 1379 1380 1381 1382 1383 1384 1385 1386 1387 1388 1389 1390 1391 1393 1394 1395 1396 1398 1400 1401
1372 1370 1369 1368 1365 1363 1362 1361 1360 1358 1357 1356 1356 1356 1355 1354 1354 1353 1354 1354 1355 1356 1357 1359 1361 1363 1365 1366 1368 1370 1371 1373 1373 1375 1376 1377 1378 1379 1380 1381 1382 1383 1384 1385 1387 1388 1390 1391 1392 1394 1395 1397 1398 1400
1371 1370 1370 1369 1363 1360 1359 1359 1357 1356 1354 1353 1352 1352 1352 1353 1353 1351 1351 1352 1354 1356 1357 1359 1360 1362 1364 1365 1367 1368 1369 1369 1370 1372 1373 1374 1375 1376 1377 1378 1379 1380 1381 1383 1385 1386 1388 1389 1391 1392 1394 1395 1397 1398
1369 1368 1366 1366 1362 1360 1359 1358 1356 1354 1352 1350 1348 1348 1348 1349 1348 1347 1347 1348 1351 1353 1356 1358 1360 1361 1363 1364 1366 1366 1367 1368 1369 1370 1370 1371 1372 1373 1374 1376 1377 1378 1380 1381 1383 1385 1386 1388 1389 1390 1392 1394 1395 1397